STARLINK-32164 (60271 NORAD) Tracking and Keplerian Element Data

This shows tracking and keplerian element data for the satellite.

Feedback or suggestion? Click here.




ElementValue
Catalog60271
NameSTARLINK-32164
Epoch Orbit1305
Epoch Day286.6746967
Epoch Year2024
RAAN276.7628
Inclination53.1577
Eccentricity0.0001611
Argument of Perigee78.6913
Mean Anonmoly281.4273
Mean Motion15.39658321
Decay Rate0.00055226
L11 60271U 24131S 24286.67469670 .00055226 00000+0 13789-2 0 9993
L22 60271 53.1577 276.7628 0001611 78.6913 281.4273 15.39658321 13056



Live tracking and technical data element details for STARLINK-32164 (NORAD 60271). STARLINK-32164 can be tracked NOW for your location showing map with azimuth and elevation plus other details from your city location.







IsCatalogInMostPopularTable: catalog: 60271, numindb: 10
Update: records affected: 1



GetName: 60271 STARLINK-32164

Hit Count: updated at: Thu, 23 Jan 2025 17:20:30 GMT